This is the latest recevied weather packets stored in our database for station/object KG5WBN. If no packets are shown the sender has not sent any weather packets the latest 10 day(s).
| Time | Temp. | Humidity | Pressure | Rain* | Wind** | Luminosity | Snow |
|---|---|---|---|---|---|---|---|
| 1778107795 | 28.33° C | 73% | 1010.2 hPa | 0 mm | - | 70 W/m² | - |
| 1778107492 | 28.33° C | 72% | 1010.2 hPa | 0 mm | - | 90 W/m² | - |
| 1778107189 | 28.33° C | 72% | 1010.2 hPa | 0 mm | - | 100 W/m² | - |
| 1778106885 | 28.33° C | 62% | 1010.2 hPa | 0 mm | - | 112 W/m² | - |
| 1778106582 | 28.33° C | 62% | 1010.2 hPa | 0 mm | - | 112 W/m² | - |
| 1778106278 | 28.89° C | 63% | 1010.2 hPa | 0 mm | - | 85 W/m² | - |
| 1778105975 | 29.44° C | 61% | 1010.2 hPa | 0 mm | - | 103 W/m² | - |
| 1778105672 | 28.89° C | 61% | 1010.2 hPa | 0 mm | - | 135 W/m² | - |
| 1778105370 | 30° C | 59% | 1010.2 hPa | 0 mm | - | 107 W/m² | - |
| 1778105065 | 29.44° C | 59% | 1010.5 hPa | 0 mm | - | 235 W/m² | - |
| 1778104762 | 29.44° C | 58% | 1010.5 hPa | 0 mm | - | 256 W/m² | - |
| 1778104458 | 29.44° C | 57% | 1010.5 hPa | 0 mm | - | 275 W/m² | - |
| 1778104154 | 30° C | 57% | 1010.5 hPa | 0 mm | - | 181 W/m² | - |
| 1778103851 | 30° C | 57% | 1010.5 hPa | 0 mm | - | 300 W/m² | - |
| 1778103549 | 30.56° C | 57% | 1010.5 hPa | 0 mm | - | 315 W/m² | - |
| 1778103247 | 30° C | 57% | 1010.5 hPa | 0 mm | - | 310 W/m² | - |
| 1778102944 | 30.56° C | 55% | 1010.5 hPa | 0 mm | - | 318 W/m² | - |
| 1778102639 | 30.56° C | 55% | 1010.5 hPa | 0 mm | - | 317 W/m² | - |
| 1778102334 | 30.56° C | 55% | 1010.8 hPa | 0 mm | - | 322 W/m² | - |
| 1778102031 | 30.56° C | 55% | 1010.8 hPa | 0 mm | - | 341 W/m² | - |
| 1778101728 | 30.56° C | 55% | 1010.5 hPa | 0 mm | - | 183 W/m² | - |
| 1778101425 | 30.56° C | 54% | 1010.5 hPa | 0 mm | - | 210 W/m² | - |
| 1778101122 | 30.56° C | 55% | 1010.8 hPa | 0 mm | - | 347 W/m² | - |
| 1778100818 | 30° C | 58% | 1010.8 hPa | 0 mm | - | 356 W/m² | - |
| 1778100514 | 30.56° C | 58% | 1010.8 hPa | 0 mm | - | 333 W/m² | - |
* Rain latest hour (hover to see other rain measurements)
** Current wind speed in m/s (hover to see current wind gust speed)